Printer-friendly version

IAU Minor Planet Center

Minor Planet Center

MPEC 2004-P39 : 2004 PB27

The following Minor Planet Electronic Circular may be linked-to from your own Web pages, but must not otherwise be redistributed electronically.


Read MPEC 2004-P38 Read MPEC 2004-P40


M.P.E.C. 2004-P39                                Issued 2004 Aug. 11, 11:34 UT

     The Minor Planet Electronic Circulars contain information on unusual
         minor planets and routine data on comets.  They are published
   on behalf of Commission 20 of the International Astronomical Union by the
          Minor Planet Center, Smithsonian Astrophysical Observatory,
                          Cambridge, MA 02138, U.S.A.

                  Supported in part by the Brinson Foundation
             Prepared using the Tamkin Foundation Computer Network

                              MPC@CFA.HARVARD.EDU
          URL http://cfa-www.harvard.edu/iau/mpc.html  ISSN 1523-6714

                                   2004 PB27

Observations:
     K04P27B* C2004 08 08.24769 20 56 37.57 -13 15 28.9          19.4   EP039704
     K04P27B  C2004 08 08.26645 20 56 37.07 -13 15 51.0          19.4   EP039704
     K04P27B  C2004 08 08.28538 20 56 36.61 -13 16 14.2          19.4   EP039704
     K04P27B  C2004 08 08.86604 20 56 24.70 -13 28 05.8                 EP039246
     K04P27B  C2004 08 08.86889 20 56 24.64 -13 28 08.6                 EP039246
     K04P27B  C2004 08 08.86983 20 56 24.61 -13 28 09.8                 EP039246
     K04P27B  C2004 08 08.87064 20 56 24.56 -13 28 11.0                 EP039246
     K04P27B  C2004 08 08.87152 20 56 24.55 -13 28 11.9                 EP039246
     K04P27B  C2004 08 08.87255 20 56 24.52 -13 28 13.3                 EP039246
     K04P27B 5C2004 08 09.22731 20 56 17.21 -13 35 25.6          19.0 R EP039673
     K04P27B  C2004 08 09.23206 20 56 16.69 -13 35 33.4          18.0 R EP039785
     K04P27B 5C2004 08 09.23345 20 56 17.03 -13 35 33.2                 EP039673
     K04P27B 5C2004 08 09.23623 20 56 16.99 -13 35 37.1                 EP039673
     K04P27B  C2004 08 09.23773 20 56 16.54 -13 35 40.7          18.1 R EP039785
     K04P27B 5C2004 08 09.23993 20 56 16.86 -13 35 41.0                 EP039673
     K04P27B  C2004 08 09.24572 20 56 16.48 -13 35 47.4          17.9 R EP039785
     K04P27B  C2004 08 09.25451 20 56 16.28 -13 35 59.8          17.6 R EP039785
     K04P27B  C2004 08 09.86884 20 56 03.86 -13 48 32.6                 EP039246
     K04P27B  C2004 08 09.87240 20 56 03.79 -13 48 37.5                 EP039246
     K04P27B  C2004 08 09.87341 20 56 03.71 -13 48 38.0                 EP039246
     K04P27B  C2004 08 09.87485 20 56 03.76 -13 48 40.1                 EP039246
     K04P27B  C2004 08 09.87583 20 56 03.69 -13 48 41.4                 EP039246
     K04P27B  C2004 08 09.87714 20 56 03.63 -13 48 42.5                 EP039246
     K04P27B  C2004 08 09.87856 20 56 03.63 -13 48 45.1                 EP039246
     K04P27B  C2004 08 09.97705 20 56 01.56 -13 50 43.4          19.3   EP039952
     K04P27B  C2004 08 09.98022 20 56 01.49 -13 50 47.4          19.2   EP039952
     K04P27B  C2004 08 09.98338 20 56 01.43 -13 50 51.8          19.2   EP039952
     K04P27B  C2004 08 09.98655 20 56 01.33 -13 50 55.9          19.4   EP039952
     K04P27B  C2004 08 09.98866 20 56 01.27 -13 50 58.5          19.3   EP039952
     K04P27B 5C2004 08 10.19375 20 55 57.36 -13 55 09.1          19.5 R EP039673
     K04P27B 5C2004 08 10.19757 20 55 57.23 -13 55 14.8                 EP039673
     K04P27B  C2004 08 10.20203 20 55 56.93 -13 55 20.8          18.9 R EP039649
     K04P27B 5C2004 08 10.20625 20 55 57.05 -13 55 24.7                 EP039673
     K04P27B  C2004 08 10.21176 20 55 56.75 -13 55 32.3          19.0 R EP039649
     K04P27B  C2004 08 10.22150 20 55 56.47 -13 55 44.4          18.8 R EP039649
     K04P27B  C2004 08 10.22164 20 55 56.63 -13 55 43.8          19.2   EP039704
     K04P27B 5C2004 08 10.22176 20 55 56.71 -13 55 43.0                 EP039673
     K04P27B  C2004 08 10.22375 20 55 56.53 -13 55 46.0          19.0   EP039704
     K04P27B  C2004 08 10.23235 20 55 56.35 -13 55 56.7          19.9   EP039704
     K04P27B  C2004 08 10.23341 20 55 56.25 -13 55 59.8          18.6 R EP039H36
     K04P27B  C2004 08 10.23392 20 55 56.27 -13 55 58.6          19.5   EP039704
     K04P27B  C2004 08 10.24273 20 55 56.18 -13 56 09.3          18.4 R EP039854
     K04P27B  C2004 08 10.24310 20 55 56.09 -13 56 10.0          19.8   EP039704
     K04P27B  C2004 08 10.24400 20 55 55.99 -13 56 11.7          19.5 R EP039H36
     K04P27B  C2004 08 10.24409 20 55 56.03 -13 56 11.4          19.5   EP039704
     K04P27B  C2004 08 10.24857 20 55 56.04 -13 56 16.1          18.6 R EP039854
     K04P27B  C2004 08 10.25430 20 55 55.81 -13 56 23.6          19.7   EP039704
     K04P27B  C2004 08 10.25440 20 55 55.84 -13 56 23.2          18.9 R EP039854
     K04P27B  C2004 08 10.25799 20 55 55.74 -13 56 28.2          19.4   EP039704
     K04P27B  C2004 08 10.26442 20 55 55.56 -13 56 36.2          19.5   EP039704
     K04P27B  C2004 08 10.26864 20 55 55.45 -13 56 41.4          19.9   EP039704
     K04P27B  C2004 08 10.93591 20 55 41.96 -14 10 20.6          19.7   EP039952
     K04P27B  C2004 08 10.94330 20 55 41.78 -14 10 29.6          19.4   EP039952
     K04P27B  C2004 08 10.94647 20 55 41.70 -14 10 33.7          19.4   EP039952
     K04P27B  C2004 08 10.94964 20 55 41.65 -14 10 37.7          19.2   EP039952
     K04P27B  C2004 08 10.95074 20 55 41.55 -14 10 39.8                 EP039246
     K04P27B  C2004 08 10.95176 20 55 41.48 -14 10 40.8                 EP039246
     K04P27B  C2004 08 10.95347 20 55 41.48 -14 10 43.1                 EP039246
     K04P27B  C2004 08 10.95450 20 55 41.48 -14 10 44.5                 EP039246
     K04P27B  C2004 08 10.95584 20 55 41.42 -14 10 45.9                 EP039246
     K04P27B  C2004 08 10.95683 20 55 41.42 -14 10 47.1                 EP039246
     K04P27B  C2004 08 10.95784 20 55 41.35 -14 10 48.5                 EP039246
     K04P27B  C2004 08 10.95796 20 55 41.48 -14 10 48.8          19.6 R EP039J95
     K04P27B  C2004 08 10.95809 20 55 41.42 -14 10 48.4          18.5   EP039952
     K04P27B  C2004 08 10.96529 20 55 41.31 -14 10 58.5          19.4 R EP039J95
     K04P27B  C2004 08 10.97234 20 55 41.23 -14 11 07.1          19.3 R EP039J95
     K04P27B 5C2004 08 11.31620 20 55 34.11 -14 18 07.1          19.5 R EP039673
     K04P27B  C2004 08 11.33064 20 55 34.00 -14 18 26.0          18.5 R EP039G72
     K04P27B  C2004 08 11.33333 20 55 33.81 -14 18 28.2          19.0 R EP039G72
     K04P27B  C2004 08 11.33603 20 55 33.73 -14 18 31.0          18.4 R EP039G72
     K04P27B  C2004 08 11.33873 20 55 33.52 -14 18 35.7          17.9 R EP039G72
     K04P27B  C2004 08 11.34142 20 55 33.44 -14 18 39.1          17.8 R EP039G72
     K04P27B 5C2004 08 11.38137 20 55 32.64 -14 19 26.8                 EP039673
     K04P27B 5C2004 08 11.38484 20 55 32.54 -14 19 31.1                 EP039673

Observer details:
246 Klet Observatory-KLENOT.  Observers M. Tichy, J. Ticha, M. Kocer.  1.06-m
    KLENOT Telescope + CCD.
649 Powell Observatory, Louisburg.  Observers R. Fredrick, R. Trentman.
    0.75-m Newtonian reflector + CCD.
673 Table Mountain Observatory, Wrightwood.  Observer M. Vale.  Measurers
    M. Vale, J. Young.  0.6-m reflector + CCD.
704 Lincoln Laboratory ETS, New Mexico.  Observers M. Blythe, F. Shelly,
    M. Bezpalko, R. Huber, L. Manguso, D. Torres, R. Kracke, M. McCleary,
    H. Stange, A. Milner.  Measurers J. Stuart, R. Sayer, J. Evans, J. Kommers.
    1.0-m f/2.15 reflector + CCD.
785 Fitz-Randolph Observatory, Princeton.  Observer J. Maffei.  0.91-m f/13.6
    Cassegrain + CCD.
854 Sabino Canyon Observatory, Tucson.  Observer J. E. McGaha.  0.36-m f/10.0
    Schmidt-Cassegrain + CCD.
952 Marxuquera.  Observer J. J. Gomez.  0.25-m f/7.3 Schmidt-Cassegrain + CCD.
G72 University Hills.  Observer J. Foster.  0.33-m reflector + CCD.
H36 Sandlot Observatory, Scranton.  Observer G. Hug.  0.3-m Schmidt-Cassegrain
    + CCD.
J95 Great Shefford.  Observer P. Birtwhistle.  0.30-m f/6.3 Schmidt-Cassegrain
    + CCD.

Orbital elements:
2004 PB27
Epoch 2004 Aug. 3.0 TT = JDT 2453220.5                  MPC
M 355.65713              (2000.0)            P               Q
n   0.10832303     Peri.  189.41999     +0.84737367     +0.47396497
a   4.3583509      Node   139.32098     -0.46013626     +0.88044470
e   0.5368211      Incl.   21.54843     -0.26501412     -0.01320342
P   9.10           H   16.9           G   0.15
From 74 observations 2004 Aug. 8-11.

Ephemeris:
2004 PB27                a,e,i = 4.36, 0.54, 22                  q = 2.0187
Date    TT    R. A. (2000) Decl.     Delta      r     Elong.  Phase     V
2004 08 03    20 58.46   -11 30.1    1.038    2.050   173.9     3.0    18.8
2004 08 13    20 55.01   -14 52.5    1.029    2.036   171.1     4.4    18.9
2004 08 23    20 52.37   -18 13.2    1.046    2.027   160.3     9.7    19.2
2004 09 02    20 51.64   -21 15.1    1.086    2.021   149.5    14.7    19.4
2004 09 12    20 53.54   -23 46.9    1.146    2.019   139.3    19.0    19.7
2004 09 22    20 58.48   -25 42.8    1.224    2.021   130.0    22.4    19.9
2004 10 02    21 06.45   -27 02.3    1.315    2.026   121.5    24.9    20.2
2004 10 12    21 17.15   -27 47.5    1.418    2.036   113.7    26.7    20.4
2004 10 22    21 30.19   -28 01.7    1.530    2.049   106.6    27.7    20.6
2004 11 01    21 45.09   -27 48.5    1.648    2.066   100.0    28.2    20.8
2004 11 11    22 01.37   -27 11.7    1.772    2.087    93.9    28.3    21.0
2004 11 21    22 18.68   -26 14.6    1.899    2.110    88.0    27.9    21.2
2004 12 01    22 36.65   -25 00.5    2.030    2.137    82.5    27.2    21.3
2004 12 11    22 55.04   -23 32.4    2.162    2.167    77.1    26.3    21.4
2004 12 21    23 13.65   -21 53.1    2.296    2.200    72.0    25.2    21.6
2004 12 31    23 32.32   -20 05.4    2.429    2.235    66.9    23.9    21.7
2005 01 10    23 50.98   -18 11.7    2.562    2.272    61.9    22.5    21.8

Timothy B. Spahr             (C) Copyright 2004 MPC           M.P.E.C. 2004-P39

Read MPEC 2004-P38 Read MPEC 2004-P40


Our Web policy. Index to the CBAT/MPC/ICQ pages.


Valid HTML 4.01!